Location: Bord�res
(43.2000°N, 0.2167°W)
Time: 10:19:44
(UTC+00:00)

Cosmos 1470 Rocket - Pass Details

Date: 03 March 2021
Orbit: 603 x 634 km, 82.5° (Epoch: 20 April)

Event Time Altitude Azimuth Distance (km) Brightness Sun altitude
Rises 18:33:56 0° 175° (S) 2,915 7.0 -8.3°
Reaches altitude 10° 18:36:12 10° 170° (S) 2,011 6.1 -8.7°
Maximum altitude 18:40:33 54° 94° (E) 772 3.7 -9.5°
Drops below altitude 10° 18:44:54 10° 17° (NNE) 2,015 6.0 -10.3°
Sets 18:47:10 0° 13° (NNE) 2,923 6.9 -10.7°
